User: anonymous   Login
Location: Columbia
(38.9520°N, 92.3340°W)
Time: 13:59:22
(UTC-06:00)
Language:

Iridium 22 - Orbit

View from above orbital plane
View from above orbital plane
View from above satellite
View from above satellite

Ground track
Ground track

The orbit data is extracted from the following two-line orbital elements,

1 24907U 97043E   17020.42197372  .00000189  00000-0  60419-4 0  9992
2 24907  86.3990 317.8625 0002152  85.6052 274.5389 14.34215344 16654
Epoch (UTC): 20 January 2017 10:07:38
Eccentricity: 0.0002152
inclination: 86.3990°
perigee height: 776 km
apogee height: 779 km
right ascension of ascending node: 317.8625°
argument of perigee: 85.6052°
revolutions per day: 14.34215344
mean anomaly at epoch: 274.5389°
orbit number at epoch: 1665

The dashed part of the orbit path shows where the satellite is in the earth's shadow,  

DLR